Danville, IN

9:20 PM EDT on June 27, 2017 (GMT -0400)
Vermilion County

Weather History for KDNV - March, 2014

Change the Weather History Date:

Thursday, March 20, 2014

  Actual Average (KLAF) Record (KLAF)
Temperature  
Mean Temperature 40 °F -  
Max Temperature 53 °F 50 °F 85 °F (2012)
Min Temperature 27 °F 32 °F 10 °F (1965)
Degree Days  
Heating Degree Days 26    
Moisture  
Dew Point 30 °F    
Average Humidity 71    
Maximum Humidity 93    
Minimum Humidity 47    
Precipitation  
Precipitation 0.00 in - - ()
Sea Level Pressure  
Sea Level Pressure 30.02 in    
Wind  
Wind Speed 9 mph (West)    
Max Wind Speed 18 mph    
Max Gust Speed 24 mph    
Visibility 10 miles    
Events      
Averages and records for this station are not official NWS values.
T = Trace of Precipitation, MM = Missing Value Source: NWS Daily Summary

Daily Weather History Graph

Daily Weather History Graph

Search for Another Location

Airport or City:

Trip Planner

Search our weather history database for the weather conditions in past years. The results will help you decide how hot, cold, wet, or windy it might be!

Date:

Astronomy

Mar. 20, 2014 Rise Set
Actual Time 6:53 AM CDT 7:02 PM CDT
Civil Twilight 6:26 AM CDT 7:29 PM CDT
Nautical Twilight 5:55 AM CDT 8:01 PM CDT
Astronomical Twilight 5:22 AM CDT 8:33 PM CDT
Moon 11:22 PM CDT (3/20) 8:59 AM CDT (3/20)
Length of Visible Light 13h 02m
Length of Day
12h 08m
Waning Gibbous, 84% of the Moon is Illuminated
Mar 20
Waning Gibbous
Mar 23
Last Quarter
Mar 30
New
Apr 7
First Quarter
Apr 15
Full

Hourly Weather History & Observations

Time (CDT) Temp. Windchill Dew Point Humidity Pressure Visibility Wind Dir Wind Speed Gust Speed Precip Events Conditions
12:15 AM 33.8 °F 23.9 °F 25.5 °F 72% 30.05 in 10.0 mi WNW 15.0 mph 23.0 mph N/A   Overcast
12:35 AM 33.3 °F 24.6 °F 26.1 °F 75% 30.05 in 10.0 mi West 11.5 mph 16.1 mph N/A   Overcast
12:55 AM 32.7 °F 25.7 °F 26.1 °F 76% 30.05 in 10.0 mi West 8.1 mph - N/A   Overcast
1:15 AM 32.2 °F 25.0 °F 26.1 °F 78% 30.05 in 10.0 mi West 8.1 mph - N/A   Overcast
1:35 AM 31.3 °F 23.9 °F 25.7 °F 80% 30.05 in 10.0 mi West 8.1 mph - N/A   Scattered Clouds
1:55 AM 30.2 °F 22.6 °F 25.3 °F 82% 30.05 in 10.0 mi West 8.1 mph - N/A   Clear
2:15 AM 29.7 °F 22.8 °F 25.2 °F 83% 30.05 in 10.0 mi WSW 6.9 mph - N/A   Clear
2:35 AM 29.8 °F 23.9 °F 25.5 °F 84% 30.04 in 10.0 mi WSW 5.8 mph - N/A   Mostly Cloudy
2:55 AM 29.7 °F 24.7 °F 25.5 °F 85% 30.03 in 10.0 mi SW 4.6 mph - N/A   Mostly Cloudy
3:15 AM 28.2 °F 21.0 °F 24.8 °F 87% 30.04 in 10.0 mi SW 6.9 mph - N/A   Scattered Clouds
3:35 AM 28.4 °F 22.2 °F 25.0 °F 87% 30.03 in 10.0 mi WSW 5.8 mph - N/A   Clear
3:55 AM 30.0 °F 22.4 °F 26.4 °F 86% 30.04 in 10.0 mi WSW 8.1 mph - N/A   Mostly Cloudy
4:15 AM 31.1 °F 23.7 °F 27.1 °F 85% 30.04 in 10.0 mi WSW 8.1 mph - N/A   Overcast
4:35 AM 30.2 °F 23.4 °F 26.6 °F 86% 30.04 in 10.0 mi WSW 6.9 mph - N/A   Overcast
4:55 AM 30.2 °F 22.6 °F 26.8 °F 87% 30.04 in 10.0 mi WSW 8.1 mph - N/A   Mostly Cloudy
5:15 AM 29.7 °F 22.8 °F 26.6 °F 88% 30.04 in 10.0 mi SW 6.9 mph - N/A   Scattered Clouds
5:35 AM 29.3 °F 21.5 °F 26.6 °F 90% 30.05 in 10.0 mi WSW 8.1 mph - N/A   Clear
5:55 AM 28.9 °F 21.9 °F 26.2 °F 90% 30.05 in 10.0 mi SW 6.9 mph - N/A   Clear
6:15 AM 27.9 °F 21.5 °F 25.5 °F 91% 30.05 in 10.0 mi WSW 5.8 mph - N/A   Clear
6:35 AM 27.3 °F 20.9 °F 25.2 °F 92% 30.06 in 7.0 mi WSW 5.8 mph - N/A   Clear
6:55 AM 27.1 °F 21.8 °F 24.8 °F 91% 30.05 in 7.0 mi WSW 4.6 mph - N/A   Clear
7:15 AM 27.9 °F 22.6 °F 25.5 °F 91% 30.06 in 7.0 mi WSW 4.6 mph - N/A   Scattered Clouds
7:35 AM 28.0 °F 21.7 °F 26.2 °F 93% 30.06 in 5.0 mi SW 5.8 mph - N/A   Mostly Cloudy
7:55 AM 31.1 °F 26.4 °F 27.5 °F 87% 30.06 in 7.0 mi WSW 4.6 mph - N/A   Overcast
8:15 AM 32.0 °F 26.4 °F 28.2 °F 86% 30.06 in 10.0 mi WSW 5.8 mph - N/A   Overcast
8:35 AM 32.4 °F 27.9 °F 28.2 °F 85% 30.06 in 10.0 mi WSW 4.6 mph - N/A   Mostly Cloudy
8:55 AM 33.3 °F - 28.4 °F 82% 30.06 in 10.0 mi Calm Calm - N/A   Scattered Clouds
9:15 AM 35.4 °F 30.5 °F 28.4 °F 76% 30.07 in 10.0 mi WSW 5.8 mph - N/A   Mostly Cloudy
9:35 AM 37.6 °F 31.6 °F 29.5 °F 73% 30.07 in 10.0 mi SW 8.1 mph - N/A   Mostly Cloudy
9:55 AM 37.6 °F 31.0 °F 29.3 °F 72% 30.06 in 10.0 mi SSW 9.2 mph - N/A   Overcast
10:15 AM 38.3 °F 30.5 °F 30.0 °F 72% 30.06 in 10.0 mi SW 12.7 mph 19.6 mph N/A   Overcast
10:35 AM 39.2 °F 30.8 °F 30.9 °F 72% 30.05 in 10.0 mi SSW 15.0 mph 24.2 mph N/A   Mostly Cloudy
10:55 AM 41.4 °F 33.3 °F 32.2 °F 70% 30.05 in 10.0 mi SW 16.1 mph - N/A   Mostly Cloudy
11:15 AM 42.1 °F 34.2 °F 32.0 °F 67% 30.04 in 10.0 mi WSW 16.1 mph - N/A   Mostly Cloudy
11:35 AM 43.2 °F 36.6 °F 33.1 °F 68% 30.03 in 10.0 mi SW 12.7 mph - N/A   Overcast
11:55 AM 45.0 °F 38.2 °F 33.4 °F 64% 30.03 in 10.0 mi SW 15.0 mph 18.4 mph N/A   Mostly Cloudy
12:15 PM 47.1 °F - 34.2 °F 61% 30.02 in 10.0 mi WSW 18.4 mph - N/A   Mostly Cloudy
12:35 PM 48.2 °F - 33.3 °F 56% 30.01 in 10.0 mi West 15.0 mph 19.6 mph N/A   Overcast
12:55 PM 48.7 °F - 34.0 °F 57% 30.01 in 10.0 mi SW 16.1 mph - N/A   Overcast
1:15 PM 50.4 °F - 34.3 °F 54% 30.00 in 10.0 mi WSW 17.3 mph 21.9 mph N/A   Mostly Cloudy
1:35 PM 49.8 °F - 32.5 °F 51% 30.00 in 10.0 mi West 13.8 mph 21.9 mph N/A   Overcast
1:55 PM 50.9 °F - 34.0 °F 52% 30.00 in 10.0 mi WSW 11.5 mph 20.7 mph N/A   Mostly Cloudy
2:15 PM 52.5 °F - 33.1 °F 48% 29.99 in 10.0 mi West 12.7 mph - N/A   Scattered Clouds
2:35 PM 52.0 °F - 32.4 °F 47% 29.99 in 10.0 mi WNW 11.5 mph 18.4 mph N/A   Mostly Cloudy
2:55 PM 52.2 °F - 32.4 °F 47% 29.98 in 10.0 mi West 13.8 mph 21.9 mph N/A   Mostly Cloudy
3:15 PM 50.9 °F - 31.1 °F 47% 29.98 in 10.0 mi West 12.7 mph 21.9 mph N/A   Overcast
3:35 PM 52.3 °F - 32.4 °F 47% 29.98 in 10.0 mi West 12.7 mph 20.7 mph N/A   Overcast
3:55 PM 52.2 °F - 32.7 °F 48% 29.98 in 10.0 mi WNW 10.4 mph 16.1 mph N/A   Scattered Clouds
4:15 PM 52.7 °F - 33.1 °F 47% 29.97 in 10.0 mi WNW 11.5 mph 19.6 mph N/A   Scattered Clouds
4:35 PM 52.2 °F - 33.8 °F 50% 29.97 in 10.0 mi WNW 11.5 mph - N/A   Scattered Clouds
4:55 PM 52.2 °F - 34.2 °F 50% 29.97 in 10.0 mi WNW 9.2 mph - N/A   Scattered Clouds
5:15 PM 51.6 °F - 33.3 °F 50% 29.97 in 10.0 mi NW 9.2 mph - N/A   Clear
5:35 PM 50.9 °F - 32.9 °F 50% 29.97 in 10.0 mi NNW 6.9 mph - N/A   Clear
5:55 PM 50.0 °F - 32.2 °F 50% 29.97 in 10.0 mi NNW 8.1 mph - N/A   Clear
6:15 PM 49.1 °F - 32.0 °F 52% 29.97 in 10.0 mi NNW 8.1 mph - N/A   Clear
6:35 PM 47.5 °F - 32.0 °F 55% 29.97 in 10.0 mi NNW 9.2 mph - N/A   Clear
6:55 PM 44.1 °F 39.5 °F 32.0 °F 63% 29.97 in 10.0 mi North 8.1 mph - N/A   Clear
7:15 PM 41.2 °F 37.3 °F 32.9 °F 72% 29.97 in 10.0 mi NNE 5.8 mph - N/A   Clear
7:35 PM 39.4 °F 34.5 °F 32.4 °F 76% 29.96 in 10.0 mi NNE 6.9 mph - N/A   Scattered Clouds
7:55 PM 39.7 °F 34.3 °F 32.5 °F 75% 29.97 in 10.0 mi NNE 8.1 mph - N/A   Mostly Cloudy
8:15 PM 41.0 °F 37.1 °F 33.1 °F 73% 29.97 in 10.0 mi ENE 5.8 mph - N/A   Scattered Clouds
8:35 PM 39.9 °F 35.1 °F 32.9 °F 76% 29.97 in 10.0 mi NE 6.9 mph - N/A   Scattered Clouds
8:55 PM 41.0 °F 35.8 °F 32.9 °F 73% 29.98 in 10.0 mi NE 8.1 mph - N/A   Mostly Cloudy
9:15 PM 41.0 °F 35.8 °F 32.9 °F 73% 29.98 in 10.0 mi NE 8.1 mph - N/A   Overcast
9:35 PM 40.6 °F 37.5 °F 32.4 °F 72% 29.99 in 10.0 mi ENE 4.6 mph - N/A   Overcast
9:55 PM 41.0 °F 36.4 °F 32.2 °F 71% 29.99 in 10.0 mi ENE 6.9 mph - N/A   Overcast
10:15 PM 40.6 °F 36.7 °F 32.2 °F 72% 29.98 in 10.0 mi ENE 5.8 mph - N/A   Overcast
10:35 PM 40.6 °F 36.0 °F 32.2 °F 72% 29.98 in 10.0 mi ENE 6.9 mph - N/A   Overcast
10:55 PM 40.1 °F 34.7 °F 32.0 °F 73% 29.98 in 10.0 mi ENE 8.1 mph - N/A   Overcast
11:15 PM 39.7 °F 35.6 °F 32.2 °F 74% 29.98 in 10.0 mi East 5.8 mph - N/A   Overcast
11:35 PM 40.5 °F 35.1 °F 32.0 °F 72% 29.98 in 10.0 mi ESE 8.1 mph - N/A   Overcast
11:55 PM 41.0 °F 35.8 °F 31.8 °F 70% 29.97 in 10.0 mi East 8.1 mph - N/A   Overcast